This is the latest recevied weather packets stored in our database for station/object N6RDS. If no packets are shown the sender has not sent any weather packets the latest 10 day(s).
| Time | Temp. | Humidity | Pressure | Rain* | Wind** | Luminosity | Snow |
|---|---|---|---|---|---|---|---|
| 1777498010 | 19.44° C | 16% | 1024.7 hPa | 0 mm | - | 229 W/m² | - |
| 1777497706 | 20° C | 16% | 1024.7 hPa | 0 mm | - | 504 W/m² | - |
| 1777497403 | 19.44° C | 17% | 1025 hPa | 0 mm | - | 588 W/m² | - |
| 1777497098 | 19.44° C | 17% | 1024.8 hPa | 0 mm | - | 484 W/m² | - |
| 1777496795 | 19.44° C | 19% | 1024.8 hPa | 0 mm | - | 579 W/m² | - |
| 1777496492 | 20° C | 17% | 1024.9 hPa | 0 mm | - | 423 W/m² | - |
| 1777496188 | 19.44° C | 18% | 1024.9 hPa | 0 mm | - | 707 W/m² | - |
| 1777495884 | 18.89° C | 18% | 1024.9 hPa | 0 mm | - | 617 W/m² | - |
| 1777495580 | 19.44° C | 18% | 1024.9 hPa | 0 mm | - | 742 W/m² | - |
| 1777495276 | 20° C | 18% | 1024.8 hPa | 0 mm | - | 747 W/m² | - |
| 1777494975 | 20° C | 17% | 1025 hPa | 0 mm | - | 755 W/m² | - |
| 1777494671 | 19.44° C | 18% | 1025 hPa | 0 mm | - | 760 W/m² | - |
| 1777494368 | 20.56° C | 20% | 1024.9 hPa | 0 mm | - | 765 W/m² | - |
| 1777494065 | 20° C | 20% | 1024.5 hPa | 0 mm | - | 770 W/m² | - |
| 1777493763 | 20° C | 19% | 1024.7 hPa | 0 mm | - | 776 W/m² | - |
| 1777493461 | 20° C | 21% | 1024.7 hPa | 0 mm | - | 778 W/m² | - |
| 1777493155 | 20° C | 21% | 1024.4 hPa | 0 mm | - | 783 W/m² | - |
| 1777492853 | 20° C | 19% | 1024.5 hPa | 0 mm | - | 785 W/m² | - |
| 1777492549 | 20° C | 18% | 1024.7 hPa | 0 mm | - | 788 W/m² | - |
| 1777492245 | 18.89° C | 19% | 1024.8 hPa | 0 mm | - | 789 W/m² | - |
| 1777491943 | 18.89° C | 20% | 1024.8 hPa | 0 mm | - | 788 W/m² | - |
| 1777491638 | 19.44° C | 20% | 1025 hPa | 0 mm | - | 794 W/m² | - |
| 1777491337 | 19.44° C | 19% | 1025 hPa | 0 mm | - | 798 W/m² | - |
| 1777491033 | 18.89° C | 19% | 1025 hPa | 0 mm | - | 800 W/m² | - |
| 1777490729 | 19.44° C | 19% | 1025.3 hPa | 0 mm | - | 798 W/m² | - |
* Rain latest hour (hover to see other rain measurements)
** Current wind speed in m/s (hover to see current wind gust speed)